Location: Home
(42.5358°N, 72.7383°W)
Time: 12:38:57
(UTC-05:00)

Transit 4A - All Passes

Search period start: 30 November 2021 00:00
Search period end: 10 December 2021 00:00
Orbit: 866 x 978 km, 66.8° (Epoch: 29 November)

Date Brightness Start Highest point End Pass type
(mag) Time Alt. Az. Time Alt. Az. Time Alt. Az.
30 Nov - 02:47:46 10° N 02:51:32 16° NE 02:55:21 10° ENE visible
30 Nov - 04:32:55 10° NNW 04:39:08 65° NE 04:45:28 10° SE visible
30 Nov - 06:20:14 10° WNW 06:25:01 23° WSW 06:29:49 10° SSW visible
30 Nov - 17:59:57 10° ESE 18:00:56 10° E 18:01:55 10° E visible
30 Nov - 19:40:20 10° SSW 19:46:10 76° ESE 19:52:10 10° NNE visible
30 Nov - 21:28:36 10° W 21:33:11 23° NW 21:37:53 10° N night (unlit)
01 Dec - 02:56:38 10° N 03:01:17 21° NE 03:05:58 10° E visible
01 Dec - 04:42:10 10° NNW 04:48:29 89° WSW 04:54:52 10° SSE visible
01 Dec - 06:30:37 10° WNW 06:34:00 15° WSW 06:37:24 10° SW visible
01 Dec - 18:06:12 10° SE 18:09:51 17° ESE 18:13:33 10° ENE visible
01 Dec - 19:49:35 10° SW 19:55:26 75° WNW 20:01:30 10° NNE visible
01 Dec - 21:39:03 10° WNW 21:42:53 17° NW 21:46:47 10° N night (unlit)
02 Dec - 03:05:37 10° NNW 03:10:56 28° NE 03:16:18 10° ESE visible
02 Dec - 04:51:32 10° NW 04:57:45 63° WSW 05:04:00 10° SSE visible
02 Dec - 18:14:06 10° SSE 18:18:51 26° ESE 18:23:41 10° NE visible
02 Dec - 19:59:06 10° SW 20:04:49 52° NW 20:10:43 10° NNE visible
02 Dec - 21:49:54 10° WNW 21:52:41 13° NNW 21:55:31 10° N night (unlit)
03 Dec - 01:30:48 10° NNE 01:32:12 11° NNE 01:33:35 10° NE visible
03 Dec - 03:14:41 10° NNW 03:20:29 38° NE 03:26:21 10° ESE visible
03 Dec - 05:01:02 10° NW 05:06:55 43° WSW 05:12:53 10° S visible
03 Dec - 18:22:33 10° S 18:27:55 39° ESE 18:33:26 10° NE visible
03 Dec - 20:08:51 10° WSW 20:14:16 37° NW 20:19:52 10° NNE visible
03 Dec - 22:01:39 10° NW 22:02:34 10° NNW 22:03:29 10° NNW night (unlit)
04 Dec - 01:39:00 10° N 01:42:05 14° NNE 01:45:11 10° ENE visible
04 Dec - 03:23:49 10° NNW 03:29:57 52° NE 03:36:09 10° SE visible
04 Dec - 05:10:42 10° NW 05:16:02 30° WSW 05:21:25 10° SSW visible
04 Dec - 18:31:20 10° SSW 18:37:04 59° ESE 18:42:58 10° NE visible
04 Dec - 20:18:50 10° WSW 20:23:49 27° NW 20:28:56 10° NNE visible
05 Dec - 01:47:45 10° N 01:51:52 18° NE 01:56:02 10° ENE visible
05 Dec - 03:33:03 10° NNW 03:39:20 73° ENE 03:45:43 10° SE visible
05 Dec - 05:20:41 10° WNW 05:25:04 20° WSW 05:29:29 10° SSW visible
05 Dec - 16:58:32 10° SE 17:00:56 13° E 17:03:22 10° ENE visible
05 Dec - 18:40:26 10° SSW 18:46:17 86° ESE 18:52:21 10° NNE visible
05 Dec - 20:29:07 10° W 20:33:28 21° NW 20:37:56 10° N visible
06 Dec - 01:56:39 10° N 02:01:34 23° NE 02:06:32 10° E visible
06 Dec - 03:42:20 10° NNW 03:48:39 80° WSW 03:55:01 10° SSE visible
06 Dec - 05:31:26 10° WNW 05:34:02 13° W 05:36:39 10° SW visible
06 Dec - 17:05:46 10° SSE 17:09:53 20° ESE 17:14:05 10° ENE visible
06 Dec - 18:49:46 10° SW 18:55:36 66° WNW 19:01:39 10° NNE visible
06 Dec - 20:39:41 10° WNW 20:43:12 16° NW 20:46:48 10° N visible
07 Dec - 02:05:41 10° NNW 02:11:12 31° NE 02:16:46 10° ESE visible
07 Dec - 03:51:45 10° NW 03:57:52 55° WSW 04:04:05 10° S visible
07 Dec - 17:13:53 10° SSE 17:18:55 30° ESE 17:24:03 10° NE visible
07 Dec - 18:59:22 10° SW 19:05:00 46° NW 19:10:51 10° NNE visible
07 Dec - 20:50:42 10° NW 20:53:02 12° NNW 20:55:23 10° N visible
08 Dec - 00:30:24 10° N 00:32:35 12° NNE 00:34:45 10° NE night (unlit)
08 Dec - 02:14:46 10° NNW 02:20:43 42° NE 02:26:44 10° ESE visible
08 Dec - 04:01:18 10° NW 04:07:02 38° WSW 04:12:50 10° S visible
08 Dec - 17:22:28 10° S 17:28:01 45° ESE 17:33:42 10° NE visible
08 Dec - 19:09:12 10° WSW 19:14:30 33° NW 19:19:58 10° NNE visible
09 Dec - 00:38:55 10° N 00:42:26 15° NNE 00:45:58 10° ENE night (unlit)
09 Dec - 02:23:56 10° NNW 02:30:09 59° NE 02:36:27 10° SE night (unlit)
09 Dec - 04:11:03 10° NW 04:16:07 26° WSW 04:21:13 10° SSW visible
09 Dec - 17:31:22 10° SSW 17:37:11 68° ESE 17:43:10 10° NE visible
09 Dec - 19:19:17 10° W 19:24:05 25° NW 19:29:01 10° NNE visible
